OBJECT P, 64889

Orbit data source: Space-Track

You're viewing an Uncataloged Satellite

Recently launched and/or uncataloged satellites may have evolving metadata. Metadata may include but not limited to: Owner, Maufacturer, Bus, Motor, and Mission.

OBJECT P, 64889 is a satellite in SSO that was launched on Fri, 25 Jul 2025 UTC via a SOYUZ-2-1B launch vehicle from the Vostochny Cosmodrome (VOSTO). Unknown objects in Earth's orbit typically refer to objects detected orbiting the Earth but have not yet been identified or cataloged. These objects could be anything from previously untracked satellites, spent rocket stages, debris from satellite collisions, or even natural meteoroids temporarily captured by Earth's gravity.

Loading next visibility...
Identifier
64889, 2025-155P
Orbit
SSO
Country
Flag of TBDTBD
Related business
None
Manufacturer
Unknown
Mission
Operational Commercial Technology
Bus & Motor
Unknown
Mass
Unknown
Launch date (UTC)
2025-07-25 (9 months ago)
Launch vehicle
SOYUZ-2-1B
Launch site
Vostochny Cosmodrome (VOSTO)
Object type
Unknown
Shape & HBR
Box, 1.1 m
Radar Cross Section
0.035 m², Medium (>0.1 m² and < 1m²)

Expand to show TLE details & history
Last TLE update: 6 hours ago

TLE from 6 hours ago
0 OBJECT P
1 64889U 25155P   26121.19685875  .00006938  00000-0  27191-3 0  9993
2 64889  97.4562  89.1239 0006958 359.4427   0.6802 15.26070991 73549
Epoch: 2026-05-01T04:43Z
TLE epoch observation values (Epoch: 2026-05-01T04:43:28.596Z)
Latitude
-0.00002°
Longitude
159.12218°
Altitude
485.891 km
Speed
7.625 km/s
True Right ascension
05h 56m 29s
True Declination
0° 00' 00"
Sunlit
Object was in daylight at epoch
Visualization orbit readout
Latitude
Unknown
Longitude
Unknown
Altitude
Unknown
Speed
Unknown
Apparent Right ascension
Unknown
Apparent Declination
Unknown
Sunlit
N/A
Visualization observer readout
Local Sidereal Time
18:11:16
Azimuth
Unknown
Elevation
Unknown
Doppler factor
Unknown
Orbital elements
Apogee altitude
489.306 km
Perigee altitude
479.756 km
Semi-major axis
6,862.668 km
Eccentricity
0.0007
Inclination
97.4562°
RAAN
89.1239°
Arg. of periapsis
359.4427°
True anomaly
0.68115°
Mean anomaly
0.6802°
Eccentric anomaly
0.68067°
Mean motion
3.81772 °/min
Orbital period
94.3 mins
BSTAR
0.00027191
Loading maneuver chart data...
Computing Atmospheric mass density...
Loading historical data...
Loading historical data...
Loading historical data...
Loading historical data...
Loading historical data...
Loading historical data...
Loading historical data...

Documentation

Showing up to 5 results
|